Time,TemperatureF,DewpointF,PressureIn,WindDirection,WindDirectionDegrees,WindSpeedMPH,WindSpeedGustMPH,Humidity,HourlyPrecipIn,Conditions,Clouds,dailyrainin,SoftwareType,DateUTC
2013-07-24 00:02:00,81.2,74.0,29.87,WSW,252,0.0,5.0,79,0.00,,,0.00,WeatherTracker,2013-07-24 05:02:00,
2013-07-24 00:07:00,81.0,74.2,29.86,NE,47,1.0,4.0,80,0.00,,,0.00,WeatherTracker,2013-07-24 05:07:00,
2013-07-24 00:12:00,80.8,74.0,29.86,West,277,0.0,6.0,80,0.00,,,0.00,WeatherTracker,2013-07-24 05:12:00,
2013-07-24 00:17:00,80.7,74.3,29.87,ESE,111,2.0,7.0,81,0.00,,,0.00,WeatherTracker,2013-07-24 05:17:00,
2013-07-24 00:22:00,80.5,74.1,29.87,SE,136,0.0,7.0,81,0.00,,,0.00,WeatherTracker,2013-07-24 05:22:00,
2013-07-24 00:27:00,80.3,74.3,29.87,SSE,155,0.0,6.0,82,0.00,,,0.00,WeatherTracker,2013-07-24 05:27:00,
2013-07-24 00:32:00,80.1,74.1,29.87,ESE,118,0.0,6.0,82,0.00,,,0.00,WeatherTracker,2013-07-24 05:32:00,
2013-07-24 00:37:00,79.9,73.9,29.87,SE,136,1.0,6.0,82,0.00,,,0.00,WeatherTracker,2013-07-24 05:37:00,
2013-07-24 00:42:00,79.8,74.2,29.87,SSW,208,0.0,6.0,83,0.00,,,0.00,WeatherTracker,2013-07-24 05:42:00,
2013-07-24 00:47:00,79.7,74.1,29.87,SE,136,2.0,8.0,83,0.00,,,0.00,WeatherTracker,2013-07-24 05:47:00,
2013-07-24 00:52:00,79.5,74.2,29.87,SSE,156,2.0,8.0,84,0.00,,,0.00,WeatherTracker,2013-07-24 05:52:00,
2013-07-24 00:58:00,79.3,74.0,29.87,East,98,0.0,12.0,84,0.00,,,0.00,WeatherTracker,2013-07-24 05:58:00,
2013-07-24 01:03:00,79.1,74.2,29.88,ESE,105,3.0,12.0,85,0.00,,,0.00,WeatherTracker,2013-07-24 06:03:00,
2013-07-24 01:08:00,79.0,74.1,29.88,WSW,256,0.0,9.0,85,0.00,,,0.00,WeatherTracker,2013-07-24 06:08:00,
2013-07-24 01:13:00,78.9,74.0,29.88,North,5,0.0,5.0,85,0.00,,,0.00,WeatherTracker,2013-07-24 06:13:00,
2013-07-24 01:18:00,78.8,73.9,29.88,SW,222,0.0,5.0,85,0.00,,,0.00,WeatherTracker,2013-07-24 06:18:00,
2013-07-24 01:23:00,78.7,74.1,29.88,ESE,121,0.0,7.0,86,0.00,,,0.00,WeatherTracker,2013-07-24 06:23:00,
2013-07-24 01:28:00,78.7,74.1,29.87,West,271,0.0,7.0,86,0.00,,,0.00,WeatherTracker,2013-07-24 06:28:00,
2013-07-24 01:33:00,78.6,74.0,29.88,WNW,298,0.0,3.0,86,0.00,,,0.00,WeatherTracker,2013-07-24 06:33:00,
2013-07-24 01:38:00,78.5,74.0,29.87,West,266,0.0,5.0,86,0.00,,,0.00,WeatherTracker,2013-07-24 06:38:00,
2013-07-24 01:43:00,78.5,74.0,29.88,SSE,149,0.0,5.0,86,0.00,,,0.00,WeatherTracker,2013-07-24 06:43:00,
2013-07-24 01:48:00,78.5,74.3,29.88,SW,219,0.0,4.0,87,0.00,,,0.00,WeatherTracker,2013-07-24 06:48:00,
2013-07-24 01:53:00,78.4,74.2,29.87,SE,126,5.0,5.0,87,0.00,,,0.00,WeatherTracker,2013-07-24 06:53:00,
2013-07-24 01:58:00,78.4,74.2,29.87,SE,131,0.0,5.0,87,0.00,,,0.00,WeatherTracker,2013-07-24 06:58:00,
2013-07-24 02:03:00,78.3,74.1,29.87,ESE,103,3.0,5.0,87,0.00,,,0.00,WeatherTracker,2013-07-24 07:03:00,
2013-07-24 02:08:00,78.3,74.1,29.88,WSW,253,0.0,6.0,87,0.00,,,0.00,WeatherTracker,2013-07-24 07:08:00,
2013-07-24 02:13:00,78.3,73.8,29.87,West,278,0.0,6.0,86,0.00,,,0.00,WeatherTracker,2013-07-24 07:13:00,
2013-07-24 02:18:00,78.3,73.8,29.87,WSW,251,0.0,11.0,86,0.00,,,0.00,WeatherTracker,2013-07-24 07:18:00,
2013-07-24 02:23:00,78.2,73.7,29.87,WSW,257,0.0,11.0,86,0.00,,,0.00,WeatherTracker,2013-07-24 07:23:00,
2013-07-24 02:28:00,78.2,73.7,29.87,WSW,240,0.0,4.0,86,0.00,,,0.00,WeatherTracker,2013-07-24 07:28:00,
2013-07-24 02:33:00,78.2,73.7,29.87,SE,129,2.0,4.0,86,0.00,,,0.00,WeatherTracker,2013-07-24 07:33:00,
2013-07-24 02:38:00,78.2,73.7,29.87,NNW,342,0.0,4.0,86,0.00,,,0.00,WeatherTracker,2013-07-24 07:38:00,
2013-07-24 02:44:00,78.1,73.6,29.87,SE,124,0.0,4.0,86,0.00,,,0.00,WeatherTracker,2013-07-24 07:44:00,
2013-07-24 02:49:00,78.0,73.5,29.88,SE,135,2.0,3.0,86,0.00,,,0.00,WeatherTracker,2013-07-24 07:49:00,
2013-07-24 02:54:00,77.9,73.4,29.87,West,259,0.0,4.0,86,0.00,,,0.00,WeatherTracker,2013-07-24 07:54:00,
2013-07-24 02:59:00,77.8,73.6,29.87,SW,217,0.0,6.0,87,0.00,,,0.00,WeatherTracker,2013-07-24 07:59:00,
2013-07-24 03:04:00,77.7,73.5,29.88,SE,138,1.0,6.0,87,0.00,,,0.00,WeatherTracker,2013-07-24 08:04:00,
2013-07-24 03:09:00,77.6,73.4,29.88,SW,226,0.0,4.0,87,0.00,,,0.00,WeatherTracker,2013-07-24 08:09:00,
2013-07-24 03:14:00,77.5,73.3,29.88,SSE,166,0.0,4.0,87,0.00,,,0.00,WeatherTracker,2013-07-24 08:14:00,
2013-07-24 03:19:00,77.5,73.3,29.88,SSW,201,0.0,4.0,87,0.00,,,0.00,WeatherTracker,2013-07-24 08:19:00,
2013-07-24 03:24:00,77.5,73.3,29.89,East,79,0.0,3.0,87,0.00,,,0.00,WeatherTracker,2013-07-24 08:24:00,
2013-07-24 03:29:00,77.5,73.3,29.89,West,263,0.0,3.0,87,0.00,,,0.00,WeatherTracker,2013-07-24 08:29:00,
2013-07-24 03:34:00,77.4,73.6,29.89,SSW,200,0.0,1.0,88,0.00,,,0.00,WeatherTracker,2013-07-24 08:34:00,
2013-07-24 03:39:00,77.4,73.6,29.89,SW,225,0.0,1.0,88,0.00,,,0.00,WeatherTracker,2013-07-24 08:39:00,
2013-07-24 03:44:00,77.3,73.1,29.89,WSW,238,0.0,1.0,87,0.00,,,0.00,WeatherTracker,2013-07-24 08:44:00,
2013-07-24 03:49:00,77.2,73.0,29.89,WSW,252,0.0,3.0,87,0.00,,,0.00,WeatherTracker,2013-07-24 08:49:00,
2013-07-24 03:54:00,77.2,73.0,29.89,East,101,0.0,3.0,87,0.00,,,0.00,WeatherTracker,2013-07-24 08:54:00,
2013-07-24 03:59:00,77.0,72.8,29.89,East,82,2.0,4.0,87,0.00,,,0.00,WeatherTracker,2013-07-24 08:59:00,
2013-07-24 04:04:00,76.9,73.1,29.89,NW,314,0.0,4.0,88,0.00,,,0.00,WeatherTracker,2013-07-24 09:04:00,
2013-07-24 04:09:00,76.8,73.0,29.89,West,259,0.0,3.0,88,0.00,,,0.00,WeatherTracker,2013-07-24 09:09:00,
2013-07-24 04:14:00,76.8,73.0,29.89,SW,233,0.0,3.0,88,0.00,,,0.00,WeatherTracker,2013-07-24 09:14:00,
2013-07-24 04:19:00,76.7,72.9,29.89,ESE,115,0.0,3.0,88,0.00,,,0.00,WeatherTracker,2013-07-24 09:19:00,
2013-07-24 04:25:00,76.6,72.8,29.89,WSW,249,0.0,3.0,88,0.00,,,0.00,WeatherTracker,2013-07-24 09:25:00,
2013-07-24 04:30:00,76.6,72.8,29.89,South,179,8.0,8.0,88,0.00,,,0.00,WeatherTracker,2013-07-24 09:30:00,
2013-07-24 04:35:00,76.6,72.8,29.89,SSW,205,0.0,8.0,88,0.00,,,0.00,WeatherTracker,2013-07-24 09:35:00,
2013-07-24 04:40:00,76.5,72.7,29.89,West,259,0.0,8.0,88,0.00,,,0.00,WeatherTracker,2013-07-24 09:40:00,
2013-07-24 04:45:00,76.4,72.6,29.89,SE,141,0.0,4.0,88,0.00,,,0.00,WeatherTracker,2013-07-24 09:45:00,
2013-07-24 04:50:00,76.4,72.6,29.89,WSW,250,0.0,3.0,88,0.00,,,0.00,WeatherTracker,2013-07-24 09:50:00,
2013-07-24 04:55:00,76.3,72.5,29.89,WSW,257,0.0,2.0,88,0.00,,,0.00,WeatherTracker,2013-07-24 09:55:00,
2013-07-24 05:00:00,76.2,72.7,29.89,ESE,121,0.0,2.0,89,0.00,,,0.00,WeatherTracker,2013-07-24 10:00:00,
2013-07-24 05:05:00,76.2,72.7,29.89,ESE,122,0.0,2.0,89,0.00,,,0.00,WeatherTracker,2013-07-24 10:05:00,
2013-07-24 05:10:00,76.1,72.6,29.89,SSE,157,0.0,4.0,89,0.00,,,0.00,WeatherTracker,2013-07-24 10:10:00,
2013-07-24 05:15:00,76.1,72.9,29.89,SSE,155,0.0,4.0,90,0.00,,,0.00,WeatherTracker,2013-07-24 10:15:00,
2013-07-24 05:20:00,76.0,72.8,29.89,ESE,106,1.0,1.0,90,0.00,,,0.00,WeatherTracker,2013-07-24 10:20:00,
2013-07-24 05:25:00,76.0,72.8,29.89,SE,127,0.0,2.0,90,0.00,,,0.00,WeatherTracker,2013-07-24 10:25:00,
2013-07-24 05:30:00,76.0,72.8,29.89,SSE,148,0.0,4.0,90,0.00,,,0.00,WeatherTracker,2013-07-24 10:30:00,
2013-07-24 05:35:00,76.0,72.8,29.89,SSE,152,0.0,4.0,90,0.00,,,0.00,WeatherTracker,2013-07-24 10:35:00,
2013-07-24 05:40:00,76.0,72.8,29.89,SSE,162,0.0,3.0,90,0.00,,,0.00,WeatherTracker,2013-07-24 10:40:00,
2013-07-24 05:45:00,76.0,72.8,29.89,South,181,0.0,1.0,90,0.00,,,0.00,WeatherTracker,2013-07-24 10:45:00,
2013-07-24 05:50:00,76.0,72.8,29.89,West,269,0.0,4.0,90,0.00,,,0.00,WeatherTracker,2013-07-24 10:50:00,
2013-07-24 05:56:00,76.0,72.8,29.89,WSW,248,0.0,3.0,90,0.00,,,0.00,WeatherTracker,2013-07-24 10:56:00,
2013-07-24 06:01:00,76.1,72.9,29.90,SE,136,0.0,2.0,90,0.00,,,0.00,WeatherTracker,2013-07-24 11:01:00,
2013-07-24 06:06:00,76.1,72.9,29.90,SE,138,0.0,4.0,90,0.00,,,0.00,WeatherTracker,2013-07-24 11:06:00,
2013-07-24 06:11:00,76.2,73.0,29.90,SW,228,0.0,4.0,90,0.00,,,0.00,WeatherTracker,2013-07-24 11:11:00,
2013-07-24 06:16:00,76.2,73.0,29.90,WSW,246,0.0,2.0,90,0.00,,,0.00,WeatherTracker,2013-07-24 11:16:00,
2013-07-24 06:21:00,76.2,73.0,29.90,SSW,211,0.0,2.0,90,0.00,,,0.00,WeatherTracker,2013-07-24 11:21:00,
2013-07-24 06:26:00,76.2,73.0,29.90,WSW,246,0.0,2.0,90,0.00,,,0.00,WeatherTracker,2013-07-24 11:26:00,
2013-07-24 06:31:00,76.2,73.0,29.91,West,269,0.0,2.0,90,0.00,,,0.00,WeatherTracker,2013-07-24 11:31:00,
2013-07-24 06:36:00,76.2,73.0,29.91,South,189,0.0,2.0,90,0.00,,,0.00,WeatherTracker,2013-07-24 11:36:00,
2013-07-24 06:41:00,76.3,72.8,29.91,West,271,0.0,2.0,89,0.00,,,0.00,WeatherTracker,2013-07-24 11:41:00,
2013-07-24 06:46:00,76.3,72.8,29.91,West,271,0.0,1.0,89,0.00,,,0.00,WeatherTracker,2013-07-24 11:46:00,
2013-07-24 06:51:00,76.3,72.8,29.91,SW,235,0.0,4.0,89,0.00,,,0.00,WeatherTracker,2013-07-24 11:51:00,
2013-07-24 06:56:00,76.4,72.9,29.91,West,259,0.0,4.0,89,0.00,,,0.00,WeatherTracker,2013-07-24 11:56:00,